Wind_Speed
5 8 5 8 8 9 11 11 12 13 15 15 14 17 21 17 10 9 10 7 8 9
9 7 9 7 6 8 9 11 11 12 15 16 18 16 19 17 9 8 7 6 9 11
4 9 11 9 11 11 11 12 13 13 13 14 15 16 13 11 10 9 9 11 11 9
5 9 10 9 8 9 10 11 12 12 13 12 16 15 10 13 13 11 10 8 9 8
7 6 5 6 6 6 6 7 12 13 12 11 15 17 13 11 10 9 7 7 5 4
8 7 5 6 5 5 7 9 10 10 11 13 16 17 13 13 10 5 3 4 3 5
9 8 7 6 8 7 7 12 8 8 9 12 14 13 12 9 8 7 5 4 1 1
11 8 10 11 12 12 12 11 10 9 9 11 10 10 11 11 10 7 5 4 3 3
12 10 10 11 12 12 11 9 8 8 8 7 4 6 10 11 10 11 11 12 10 10
13 12 10 9 9 9 9 8 7 6 6 7 4 6 8 9 10 11 10 12 12 11
13 11 9 9 8 7 7 8 8 8 10 10 11 9 9 13 16 16 15 12 11 11
13 12 11 12 11 10 11 11 11 12 13 14 15 16 17 16 17 15 14 13 14 10
15 13 13 13 14 14 16 15 15 17 17 17 16 17 18 15 14 14 13 14 13 12
16 16 16 16 16 20 18 18 19 21 19 19 20 21 17 16 15 12 12 13 15 15
Wind_Direction
45 28 24 146 163 178 181 174 168 173 176 178 178 172 183 179 191 209 216 204 219 235
65 61 92 115 121 122 145 146 140 139 147 146 153 155 174 176 198 212 222 235 228 225
113 80 86 89 76 107 111 123 128 122 126 144 159 159 166 188 192 183 195 215 216 220
110 132 85 76 86 93 104 117 123 122 122 135 163 157 169 191 185 178 186 208 214 218
166 144 123 99 95 115 116 127 133 129 116 130 159 168 165 180 182 187 194 215 222 233
165 165 168 151 143 142 135 140 141 145 116 116 133 145 151 161 158 165 212 235 255 256
139 140 147 152 145 144 145 164 151 155 140 122 127 138 135 148 166 182 218 227 223 5
144 130 129 132 127 127 121 130 129 133 139 143 145 157 162 175 183 185 169 145 128 102
158 149 142 141 137 133 129 128 127 127 136 133 130 166 181 165 153 142 144 133 109 84
169 159 157 154 153 149 141 132 114 105 113 104 91 172 177 158 133 123 117 113 118 121
175 163 162 155 139 135 137 127 115 95 85 83 81 109 142 138 118 113 105 99 104 106
146 132 130 128 126 125 119 109 98 90 88 88 85 109 113 114 111 105 97 95 101 86
124 130 122 118 115 112 114 110 104 93 89 86 82 102 101 98 105 98 93 80 77 85
120 114 111 110 111 119 106 106 103 97 88 84 77 86 96 98 90 93 90 86 77 70
Height
775 773 771 770 772 774 776 779 781 784 788 792 796 801 805 810 816 819 822 822 824 825
776 775 774 773 774 775 777 779 782 785 787 791 795 800 803 809 813 816 818 820 824 825
778 777 777 777 777 778 780 782 784 787 790 792 795 799 804 809 813 815 817 822 824 823
781 779 780 781 781 782 783 785 787 790 792 795 798 801 806 810 812 816 818 821 821 821
782 781 781 783 784 785 787 788 790 792 795 797 799 802 806 809 812 816 816 818 818 818
783 783 783 783 785 787 788 789 791 794 797 799 800 804 807 809 812 814 817 818 817 818
783 784 784 785 785 788 789 791 793 795 798 801 803 805 807 810 813 816 817 817 816 817
784 786 786 787 788 789 792 793 795 797 799 802 804 807 809 811 813 815 815 816 817 817
783 786 788 789 791 792 794 796 798 799 801 802 805 806 809 811 812 812 813 814 817 818
784 786 789 790 791 793 795 797 799 800 802 804 804 805 807 810 812 814 816 816 819 822
785 785 789 791 794 796 798 800 802 804 806 807 805 806 808 809 813 816 818 822 823 823
784 788 791 793 795 798 800 802 805 807 809 811 811 812 812 813 815 818 820 822 823 826
785 790 792 795 797 799 801 804 808 811 814 816 817 814 814 817 819 821 823 825 826 827
787 792 795 797 800 801 806 809 812 815 818 821 821 819 818 819 822 825 827 829 829 831